TimeEDT,TemperatureF,Dew PointF,Humidity,Sea Level PressureIn,VisibilityMPH,Wind Direction,Wind SpeedMPH,Gust SpeedMPH,PrecipitationIn,Events,Conditions,WindDirDegrees,DateUTC
12:17 AM,59.0,59.0,100,30.07,10.0,NNE,2.3,-,N/A,,Mostly Cloudy,30,2013-10-05 04:17:00
12:33 AM,59.0,59.0,100,30.06,10.0,NNE,2.3,-,N/A,,Overcast,30,2013-10-05 04:33:00
12:58 AM,58.6,58.3,99,30.08,10.0,North,3.5,-,N/A,,Overcast,10,2013-10-05 04:58:00
1:16 AM,59.0,59.0,100,30.06,10.0,North,4.6,-,N/A,,Overcast,10,2013-10-05 05:16:00
1:22 AM,59.0,59.0,100,30.06,10.0,NNE,3.5,-,N/A,,Overcast,30,2013-10-05 05:22:00
1:44 AM,59.0,59.0,100,30.06,10.0,NW,2.3,-,N/A,,Overcast,320,2013-10-05 05:44:00
1:53 AM,59.0,59.0,100,30.06,10.0,North,2.3,-,N/A,,Mostly Cloudy,350,2013-10-05 05:53:00
1:58 AM,58.8,58.5,99,30.08,10.0,NNW,1.2,-,N/A,,Mostly Cloudy,340,2013-10-05 05:58:00
2:07 AM,59.0,59.0,100,30.06,10.0,NNW,2.3,-,N/A,Rain,Light Rain,340,2013-10-05 06:07:00
2:09 AM,59.0,59.0,100,30.06,10.0,North,1.2,-,N/A,Rain,Light Rain,350,2013-10-05 06:09:00
2:24 AM,59.0,59.0,100,30.07,10.0,West,2.3,-,N/A,Rain,Light Rain,270,2013-10-05 06:24:00
2:32 AM,59.0,59.0,100,30.06,10.0,NW,2.3,-,N/A,,Overcast,320,2013-10-05 06:32:00
2:45 AM,59.0,59.0,100,30.06,10.0,NW,3.5,-,N/A,,Overcast,320,2013-10-05 06:45:00
2:53 AM,59.0,59.0,100,30.06,10.0,NNW,2.3,-,N/A,,Light Drizzle,330,2013-10-05 06:53:00
2:54 AM,59.0,59.0,100,30.06,10.0,NNW,2.3,-,N/A,,Light Drizzle,340,2013-10-05 06:54:00
2:58 AM,58.6,58.3,99,30.08,10.0,NNW,2.3,-,0.00,Rain,Light Rain,340,2013-10-05 06:58:00
3:08 AM,59.0,59.0,100,30.06,10.0,North,3.5,-,N/A,,Overcast,10,2013-10-05 07:08:00
3:58 AM,58.5,58.1,99,30.08,10.0,NE,3.5,-,0.00,,Overcast,40,2013-10-05 07:58:00
4:58 AM,58.5,58.1,99,30.09,10.0,Calm,Calm,-,N/A,,Overcast,0,2013-10-05 08:58:00
5:22 AM,59.0,59.0,100,30.08,10.0,NNW,2.3,-,N/A,,Overcast,340,2013-10-05 09:22:00
5:58 AM,58.3,58.1,99,30.10,10.0,NNE,1.2,-,N/A,,Overcast,20,2013-10-05 09:58:00
6:58 AM,58.5,58.1,99,30.10,10.0,NNW,2.3,-,N/A,,Overcast,330,2013-10-05 10:58:00
7:24 AM,59.0,59.0,100,30.09,10.0,WNW,2.3,-,N/A,,Overcast,300,2013-10-05 11:24:00
7:58 AM,59.0,58.6,99,30.11,10.0,North,3.5,-,N/A,,Overcast,360,2013-10-05 11:58:00
8:58 AM,60.1,59.7,99,30.12,10.0,North,1.2,-,N/A,,Overcast,360,2013-10-05 12:58:00
9:58 AM,62.1,61.5,98,30.13,10.0,Variable,1.2,-,N/A,,Overcast,0,2013-10-05 13:58:00
9:59 AM,62.6,62.6,100,30.11,10.0,Variable,2.3,-,N/A,,Overcast,0,2013-10-05 13:59:00
10:35 AM,64.4,60.8,88,30.11,10.0,Variable,2.3,-,N/A,,Overcast,0,2013-10-05 14:35:00
10:58 AM,64.4,61.0,89,30.12,10.0,Calm,Calm,-,N/A,,Overcast,0,2013-10-05 14:58:00
11:08 AM,66.2,60.8,83,30.10,10.0,North,4.6,-,N/A,,Overcast,10,2013-10-05 15:08:00
11:18 AM,66.2,60.8,83,30.10,10.0,NNW,1.2,-,N/A,,Overcast,330,2013-10-05 15:18:00
11:30 AM,66.2,60.8,83,30.10,10.0,WNW,1.2,-,N/A,,Mostly Cloudy,300,2013-10-05 15:30:00
11:58 AM,67.5,60.6,79,30.11,10.0,Variable,2.3,-,N/A,,Mostly Cloudy,0,2013-10-05 15:58:00
12:37 PM,69.8,60.8,73,30.08,10.0,Variable,2.3,-,N/A,,Mostly Cloudy,0,2013-10-05 16:37:00
12:58 PM,69.6,60.3,72,30.09,10.0,Variable,2.3,-,N/A,,Mostly Cloudy,0,2013-10-05 16:58:00
1:58 PM,70.3,61.2,73,30.07,10.0,South,4.6,-,N/A,,Mostly Cloudy,170,2013-10-05 17:58:00
2:58 PM,70.0,61.9,75,30.07,10.0,ESE,2.3,-,N/A,,Mostly Cloudy,110,2013-10-05 18:58:00
3:58 PM,72.3,61.9,70,30.07,10.0,Calm,Calm,-,N/A,,Mostly Cloudy,0,2013-10-05 19:58:00
4:58 PM,70.0,62.4,77,30.07,10.0,NE,5.8,-,N/A,,Mostly Cloudy,50,2013-10-05 20:58:00
5:58 PM,68.9,62.8,81,30.08,10.0,NNE,4.6,-,N/A,,Mostly Cloudy,20,2013-10-05 21:58:00
6:29 PM,66.2,62.6,88,30.07,10.0,North,3.5,-,N/A,Rain,Light Rain,10,2013-10-05 22:29:00
6:49 PM,66.2,64.4,94,30.07,8.0,North,2.3,-,N/A,Rain,Light Rain,10,2013-10-05 22:49:00
6:58 PM,65.8,64.2,94,30.09,8.0,North,3.5,-,N/A,Rain,Light Rain,10,2013-10-05 22:58:00
7:07 PM,66.2,64.4,94,30.07,9.0,NNE,3.5,-,N/A,,Overcast,30,2013-10-05 23:07:00
7:45 PM,64.4,64.4,100,30.08,9.0,NNE,4.6,-,N/A,,Overcast,30,2013-10-05 23:45:00
7:58 PM,64.4,63.7,98,30.10,10.0,North,3.5,-,0.00,,Mostly Cloudy,360,2013-10-05 23:58:00
8:45 PM,64.4,64.4,100,30.08,9.0,North,4.6,-,N/A,,Overcast,10,2013-10-06 00:45:00
8:58 PM,63.7,63.3,99,30.10,9.0,NNE,4.6,-,N/A,,Overcast,20,2013-10-06 00:58:00
9:58 PM,63.3,63.0,99,30.12,10.0,North,3.5,-,N/A,,Overcast,360,2013-10-06 01:58:00
10:53 PM,62.6,62.6,100,30.10,10.0,North,4.6,-,N/A,,Overcast,350,2013-10-06 02:53:00
10:58 PM,63.0,62.8,99,30.12,10.0,North,4.6,-,N/A,,Overcast,360,2013-10-06 02:58:00
11:41 PM,62.6,62.6,100,30.10,10.0,NNE,4.6,-,N/A,,Overcast,20,2013-10-06 03:41:00
11:58 PM,62.8,62.4,99,30.12,10.0,North,5.8,-,N/A,,Overcast,360,2013-10-06 03:58:00